User: anonymous   Login
Location: Unspecified
(0.0000°N, 0.0000°E)
Time: 08:10:26
(UTC+01:00)
Language:

Landsat 4 - Orbit

View from above orbital plane
View from above orbital plane
View from above satellite
View from above satellite

Ground track
Ground track

The orbit data is extracted from the following two-line orbital elements,

1 13367U 82072A   14352.82937933  .00005594  00000-0  33166-3 0  8161
2 13367 098.1928 069.0763 0015586 060.3184 055.1457 15.11731627747095
Epoch (UTC): 18 December 2014 19:54:18
Eccentricity: 0.0015586
inclination: 98.1928°
perigee height: 520 km
apogee height: 541 km
right ascension of ascending node: 69.0763°
argument of perigee: 60.3184°
revolutions per day: 15.11731627
mean anomaly at epoch: 55.1457°
orbit number at epoch: 74709

The dashed part of the orbit path shows where the satellite is in the earth's shadow,  

DLR